Rechercher aéroport 
image banner adimage banner ad
image banner ad

DAAP - Illizi / Takhamalt

Situé à Illizi, Algeria

ICAO - DAAP, IATA - VVZ

Données fournies par Airmate  

Information générale

Coordonnées: N26°43'25" E8°37'4"
Élévation : 1778 feet MSL.
 
Voir autres Aéroports à Illizi Province

Données opérationnelles

Accessible au public
Heure actuelle UTC:
Heure actuelle locale:
Météo
METAR: DAAP 291100Z 11009KT CAVOK 28/04 Q1020
TAF: TAF DAAP 290800Z 2909/2918 08010KT CAVOK
Voir NOTAMs / SUP AIP / TFR affectant cet aéroport [VIEW]
Fréquences de communication: [VIEW]

Pistes:

Identifiant RWYQFULongueur (ft)Largeur (ft)SurfaceLDA (ft)
0991°9843148ASP
27271°9843148

Coordonnées de l'aéroport

Adresse: Illizi Algeria

Vue satellite de DAAP